Location: *
(32.8140°S, 174.6161°E)
Time: 10:41:21
(UTC+00:00)

SL-4 R/B - Pass Details

Date: 10 December 2019
Orbit: 428 x 667 km, 51.6° (Epoch: 25 January)

Event Time Altitude Azimuth Distance (km) Brightness Sun altitude
Exits shadow 14:38:12 58° 49° (NE) 765 2.6 -24.5°
Drops below altitude 10° 14:42:45 10° 126° (SE) 2,016 5.9 -24.0°
Sets 14:45:02 0° 130° (SE) 2,895 7.0 -23.7°
